EHI
0 0 0 0 0 0 0 0 0 0 0 0 0 0 0 0 0 0 0 0 0 0 0 0 0 0 0 0 0 0 0 0 0 0 0 0 0 0 0 0 0 0 0
0 0 0 0 0 0 0 0 0 0 0 0 0 0 0 0 0 0 0 0 0 0 0 0 0 0 0 0 0 0 0 0 0 0 0 0 0 0 0 0 0 0 0
0 0 0 0 0 0 0 0 0 0 0 0 0 0 0 0 0 0 0 0 0 0 0 0 0 0 0 0 0 0 0 0 0 0 0 0 0 0 0 0 0 0 0
0 0 0 0 0 0 0 0 0 0 0 0 0 0 0 0 0 0 0 0 0 0 0 0 0 0 0 0 0 0 0 0 0 0 0 0 0 0 0 0 0 0 0
0 0 0 0 0 0 0 0 0 0 0 0 0 0 0 0 0 0 0 0 0 0 0 0 0 0 0 0 0 0 0 0 0 0 0 0 0 0 0 0 0 0 0
0 0 0 0 0 0 0 0 0 0 0 0 0 0 0 0 0 0 0 0 0 0 0 0 0 0 0 0 0 0 0 0 0 0 0 0 0 0 0 0 0 0 0
0 0 0 0 0 0 0 0 0 0 0 0 0 0 0 0 0 0 0 0 0 0 0 0 0 0 0 0 0 0 0 0 0 0 0 0 0 0 0 0 0 0 0
0 0 0 0 0 0 0 0 0 0 0 0 0 0 0 0 0 0 0 0 0 0 0 0 0 0 0 0 0 0 0 0 0 0 0 0 0 0 0 0 0 0 0
0 0 0 0 0 0 0 0 0 0 0 0 0 0 0 0 0 0 0 0 0 0 0 0 0 0 0 0 0 0 0 0 0 0 0 0 0 0 0 0 0 0 0
0 0 0 0 0 0 0 0 0 0 0 0 0 0 0 0 0 0 0 0 0 0 0 0 0 0 0 0 0 0 0 0 0 0 0 0 0 0 0 0 0 0 0
0 0 0 0 0 0 0 0 0 0 0 0 0 0 0 0 0 0 0 0 0 0 0 0 0 0 0 0 0 0 0 0 0 0 0 0 0 0 0 0 0 0 0
0 0 0 0 0 0 0 0 0 0 0 0 0 0 0 0 0 0 0 0 0 0 0 0 0 0 0 0 0 0 0 0 0 0 0 0 0 0 0 0 0 0 0
0 0 0 0 0 0 0 0 0 0 0 0 0 0 0 0 0 0 0 0 0 0 0 0 0 0 0 0 0 0 0 0 0 0 0 0 0 0 0 0 0 0 0
0 0 0 0 0 0 0 0 0 0 0 0 0 0 0 0 0 0 0 0 0 0 0 0 0 0 0 0 0 0 0 0 0 0 0 0 0 0 0 0 0 0 0
0 0 0 0 0 0 0 0 0 0 0 0 0 0 0 0 0 0 0 0 0 0 0 0 0 0 0 0 0 0 0 0 0 0 0 0 0 0 0 0 0 0 0
0 0 0 0 0 0 0 0 0 0 0 0 0 0 0 0 0 0 0 0 0 0 0 0 0 0 0 0 0 0 0 0 0 0 0 0 0 0 0 0 0 0 0
0 0 0 0 0 0 0 0 0 0 0 0 0 0 0 0 0 0 0 0 0 0 0 0 0 0 0 0 0 0 0 0 0 0 0 0 0 0 0 0 0 0 0
0 0 0 0 0 0 0 0 0 0 0 0 0 0 0 0 0 0 0 0 0 0 0 0 0 0 0 0 0 0 0 0 0 0 0 0 0 0 0 0 0 0 0
0 0 0 0 0 0 0 0 0 0 0 0 0 0 0 0 0 0 0 0 0 0 0 0 0 0 0 0 0 0 0 0 0 0 0 0 0 0 0 0 0 0 0
0 0 0 0 0 0 0 0 0 0 0 0 0 0 0 0 0 0 0 0 0 0 0 0 0 0 0 0 0 0 0 0 0 0 0 0 0 0 0 0 0 0 0
0 0 0 0 0 0 0 0 0 0 0 0 0 0 0 0 0 0 0 0 0 0 0 0 0 0 0 0 0 0 0 0 0 0 0 0 0 0 0 0 0 0 0
0 0 0 0 0 0 0 0 0 0 0 0 0 0 0 0 0 0 0 0 0 0 0 0 0 0 0 0 0 0 0 0 0 0 0 0 0 0 0 0 0 0 0
0 0 0 0 0 0 0 0 0 0 0 0 0 0 0 0 0 0 0 0 0 0 0 0 0 0 0 0 0 0 0 0 0 0 0 0 0 0 0 0 0 0 0
0 0 0 0 0 0 0 0 0 0 0 0 0 0 0 0 0 0 0 0 0 0 0 0 0 0 0 0 0 0 0 0 0 0 0 0 0 0 0 0 0 0 0
0 0 0 0 0 0 0 0 0 0 0 0 0 0 0 0 0 0 0 0 0 0 0 0 0 0 0 0 0 0 0 0 0 0 0 0 0 0 0 0 0 0 0
0 0 0 0 0 0 0 0 0 0 0 0 0 0 0 0 0 0 0 0 0 0 0 0 0 0 0 0 0 0 0 0 0 0 0 0 0 0 0 0 0 0 0
Wind_Speed
3 3 3 3 3 3 3 3 3 3 3 3 4 4 4 4 4 5 5 5 5 5 5 5 5 5 4 4 4 4 5 5 7 5 4 5 6 6 5 5 5 5 5
3 3 3 3 3 3 4 4 4 4 3 4 4 4 4 4 5 5 5 5 6 6 6 6 6 4 6 5 4 5 5 6 6 7 5 5 6 6 6 6 4 4 5
3 3 4 4 4 4 4 4 4 4 4 4 4 5 5 5 5 5 5 6 6 7 6 6 6 6 7 5 6 6 5 5 5 6 6 5 5 4 5 5 5 4 4
4 4 4 5 4 4 4 5 4 4 4 4 4 5 5 5 5 5 5 6 6 6 6 6 7 7 8 7 6 6 6 6 6 6 6 5 5 4 4 4 4 4 4
4 5 5 5 4 4 5 5 4 4 4 4 4 5 5 4 5 5 5 6 6 6 6 7 7 8 9 7 6 6 6 6 5 6 6 5 5 4 4 4 5 4 5
5 5 5 5 4 4 5 4 4 4 4 4 5 5 5 4 6 7 6 5 5 6 6 7 7 8 9 10 11 10 9 8 7 6 6 7 7 6 5 4 4 4 5
5 5 5 5 5 5 5 4 4 5 5 5 5 5 6 6 7 8 7 6 6 6 6 6 6 6 8 8 8 10 10 12 11 9 9 9 8 6 6 6 6 6 6
5 5 5 5 5 5 5 5 5 5 5 5 5 6 6 6 8 8 8 7 6 6 6 7 7 7 7 7 7 8 8 8 9 8 9 9 7 6 6 7 6 5 4
5 5 5 5 5 5 5 5 5 5 5 5 5 6 7 7 8 8 7 5 5 6 6 7 7 8 9 9 8 7 7 7 7 9 9 8 8 8 6 4 3 3 4
5 6 5 5 5 6 6 5 5 5 5 5 6 6 7 7 7 8 7 5 5 5 5 6 8 9 10 9 8 7 8 6 6 5 6 6 6 6 6 5 5 5 4
5 5 5 5 6 6 6 5 5 5 5 5 6 6 6 7 7 8 8 5 5 5 5 5 5 9 10 10 9 7 8 6 5 5 4 4 3 3 3 4 4 5 5
5 5 5 5 5 5 5 5 5 5 5 5 5 5 5 6 7 7 9 8 7 6 6 5 5 9 10 10 8 8 7 5 3 3 3 3 3 3 3 3 3 3 4
5 5 5 5 5 4 5 5 4 4 4 4 4 5 4 4 5 8 8 9 9 7 6 7 8 9 9 8 8 7 5 4 3 4 4 3 3 3 2 2 2 2 3
5 5 4 4 4 4 4 4 4 4 4 4 4 5 4 4 4 4 4 5 7 7 5 6 8 8 7 7 5 4 4 3 3 4 3 3 2 2 2 2 2 2 2
5 5 4 4 4 4 4 4 4 5 5 5 4 5 5 5 5 7 5 4 4 5 4 4 4 4 4 3 3 3 3 3 3 2 2 3 2 2 2 2 2 2 3
4 4 3 3 3 3 3 4 5 6 7 7 7 7 6 7 8 8 9 8 8 6 5 4 4 4 4 4 4 3 3 3 3 3 3 3 3 3 2 2 2 3 3
4 4 3 3 3 3 3 3 4 4 5 6 7 7 7 8 8 8 8 8 7 6 4 4 4 4 4 4 4 4 3 3 3 3 3 3 3 2 2 3 3 3 3
4 4 4 3 3 3 3 3 3 4 4 3 5 7 8 8 8 8 7 5 4 4 4 4 4 4 4 4 4 3 3 3 3 3 3 3 3 3 3 3 3 3 3
3 3 3 3 3 3 3 3 3 4 4 4 3 4 6 7 7 6 5 4 4 4 4 4 4 4 4 4 3 3 3 3 3 3 3 3 3 3 3 3 3 4 3
3 4 3 3 3 3 3 3 3 3 3 3 3 3 3 3 3 3 3 3 4 4 4 4 4 4 4 3 3 3 3 3 3 3 3 2 3 3 3 3 3 3 3
2 2 3 3 2 2 2 3 3 3 3 4 3 3 4 3 3 4 3 3 4 4 4 3 3 3 3 3 3 3 3 3 3 3 2 2 2 2 2 2 2 2 2
2 2 2 2 2 2 3 3 3 3 4 4 4 3 5 3 3 3 3 3 3 3 3 3 3 3 3 3 3 3 3 3 3 3 2 2 2 2 2 2 2 2 2
2 2 2 2 2 3 3 3 3 3 3 4 3 3 3 3 3 3 4 4 3 3 3 3 3 3 2 2 2 3 3 3 3 3 2 2 2 2 2 2 2 2 2
2 2 2 2 2 2 3 3 3 3 3 3 3 3 3 3 3 4 3 3 3 3 3 3 3 3 3 2 2 2 2 2 2 2 3 3 2 2 2 2 2 2 2
2 2 2 2 2 3 3 3 3 3 3 3 3 3 3 3 3 3 3 3 3 3 3 3 2 3 3 3 2 2 3 3 3 2 2 3 3 2 2 2 2 2 2
2 2 2 2 2 3 3 3 3 3 3 3 3 3 3 3 3 3 3 3 3 3 3 2 2 3 3 2 2 2 3 2 2 3 2 2 2 2 2 2 2 2 2
Wind_Direction
251 255 257 257 258 259 262 274 274 268 264 256 254 251 244 239 237 236 237 239 238 240 240 240 243 249 250 250 249 250 252 254 262 274 276 279 280 276 272 267 265 261 254
252 252 253 256 253 253 257 266 267 263 261 257 253 248 248 246 241 239 238 240 241 243 242 242 244 244 247 250 249 250 250 250 258 269 276 277 276 273 274 272 269 263 260
253 250 248 248 249 253 258 266 263 258 259 257 253 249 246 244 244 246 246 243 242 242 243 244 245 244 244 243 246 248 252 254 255 261 269 275 277 272 274 272 267 264 264
254 250 248 250 251 256 258 262 259 256 255 258 258 254 250 249 247 247 246 244 247 247 245 245 244 244 246 247 245 247 252 255 255 258 263 270 274 271 268 266 268 262 260
255 251 253 257 255 255 256 258 255 253 254 254 254 255 254 251 251 255 249 248 251 252 251 249 248 249 253 253 251 249 249 249 252 254 259 266 267 259 255 261 264 271 267
256 255 257 255 251 251 258 255 253 253 254 252 253 255 255 254 263 265 264 255 254 252 254 255 251 246 249 252 251 251 249 247 248 251 256 258 261 261 259 256 258 266 269
256 256 253 250 249 252 251 248 251 253 252 250 252 254 255 258 263 264 264 260 258 257 258 259 257 255 253 251 253 253 252 251 250 252 254 256 258 255 253 250 249 257 265
260 259 256 254 254 252 249 248 251 251 250 252 254 256 259 261 264 264 263 255 256 255 255 259 263 262 256 257 258 257 256 252 251 250 255 258 258 258 252 254 259 269 280
264 264 262 257 253 252 251 252 253 254 253 254 255 256 258 260 260 263 264 256 256 258 258 259 262 264 265 264 257 257 261 264 261 260 266 267 263 257 256 251 245 251 266
265 266 263 259 253 252 252 253 252 251 253 255 255 256 257 259 259 259 259 254 259 262 262 262 261 267 272 268 259 256 259 264 268 265 262 262 257 244 240 236 235 242 259
271 269 265 259 256 255 255 251 250 249 253 254 257 258 257 259 258 254 254 253 257 263 262 261 264 271 271 268 266 259 263 273 267 261 259 259 258 253 246 246 242 240 247
274 269 265 261 258 253 252 251 249 247 249 253 258 263 260 257 256 256 255 256 262 260 262 265 269 273 270 266 263 270 270 269 259 257 259 258 260 263 265 270 275 276 269
272 269 266 262 256 252 248 246 245 242 246 251 255 261 264 261 259 259 260 260 263 262 264 271 275 275 270 261 260 262 256 250 249 252 257 261 266 270 274 278 288 281 288
271 272 269 263 258 253 248 242 240 239 244 250 257 264 266 264 261 257 254 254 258 261 265 266 267 266 262 264 259 247 246 249 249 253 261 265 269 264 263 262 263 267 277
274 273 272 266 264 256 251 250 251 252 251 252 254 256 259 262 266 274 270 259 258 260 266 259 257 260 255 255 255 254 253 251 255 253 248 251 250 252 261 265 251 253 258
274 274 269 266 266 262 261 267 254 260 271 268 270 269 269 274 284 278 274 272 269 265 261 254 251 251 253 253 254 258 256 251 252 249 244 240 241 245 252 254 248 244 247
272 279 276 269 267 266 265 268 280 276 268 266 268 271 275 282 282 280 275 270 260 255 253 253 251 251 253 250 251 256 260 257 253 246 245 240 241 244 245 248 249 250 250
273 272 273 271 269 267 266 269 273 280 287 285 276 275 282 284 282 279 274 267 255 246 249 251 251 252 253 250 249 252 255 253 245 244 244 238 233 234 237 243 246 247 251
273 274 275 275 272 272 272 271 270 272 277 287 295 290 291 291 285 278 262 248 249 252 252 249 249 249 250 251 251 247 245 246 244 240 238 233 229 228 236 243 247 241 245
269 277 282 278 273 273 273 272 273 276 278 280 283 292 304 303 292 287 274 264 256 257 256 252 250 249 248 248 250 250 246 243 240 238 236 233 231 230 230 239 243 239 241
274 275 277 277 274 274 274 275 278 278 277 281 286 290 301 294 287 287 282 273 263 257 255 253 252 250 247 244 241 239 243 246 243 239 234 229 228 230 232 237 240 241 242
270 275 275 276 278 278 279 277 278 278 281 285 293 298 299 293 287 286 288 288 283 273 266 260 255 252 249 247 241 236 234 237 238 233 226 221 223 221 222 228 234 236 233
267 279 281 280 280 284 285 279 278 280 284 288 293 299 299 293 290 290 292 293 290 285 279 267 261 259 258 254 250 244 238 235 233 226 219 215 214 214 214 218 225 231 234
264 271 278 283 284 282 285 286 284 283 284 288 292 294 296 297 295 295 296 298 298 295 292 283 272 267 271 270 259 249 244 240 232 214 211 206 207 208 213 213 222 225 230
260 265 270 274 278 282 285 287 288 290 289 289 291 292 294 296 297 299 299 299 301 301 303 300 289 278 269 263 259 252 236 234 232 214 199 199 197 203 206 209 212 216 228
258 259 263 267 270 273 278 282 286 291 291 291 291 291 292 294 296 298 301 302 304 303 304 304 302 298 292 277 253 242 238 223 210 213 208 192 189 192 193 196 199 205 211